FW5449 Weather Reports


time (UTC)temp
F
wind
direction
speed
knots
gust
knots
rain 1hr
in
rain 24hr
in
rain mn
in
humidity
%
barometer
mb
20260509185904 68 37 4.3 9.6 0.00 0.00 0.00 65 1018.0
20260509185404 69 337 3.5 9.6 0.00 0.00 0.00 67 1018.1
20260509184904 69 332 3.5 8.7 0.00 0.00 0.00 66 1018.2
20260509184403 68 302 4.3 8.7 0.00 0.00 0.00 69 1018.3
20260509183903 68 357 4.3 9.6 0.00 0.00 0.00 67 1018.4
20260509183617 67 282 4.3 10.4 0.00 0.00 0.00 65 1018.4
20260509182859 67 354 4.3 10.4 0.00 0.00 0.00 70 1018.4
20260509182853 67 349 3.5 7.8 0.00 0.00 0.00 67 1018.5
20260509181859 67 310 2.6 7.8 0.00 0.00 0.00 70 1018.5
20260509181400 66 36 3.5 7.8 0.00 0.00 0.00 68 1018.5
20260509180859 67 3 3.5 7.8 0.00 0.00 0.00 71 1018.5
20260509180357 65 358 3.5 7.0 0.00 0.00 0.00 72 1018.5
20260509175856 64 42 3.5 7.0 0.00 0.00 0.00 75 1018.6
20260509175357 63 33 3.5 7.0 0.00 0.00 0.00 75 1018.7
20260509174853 63 33 4.3 8.7 0.00 0.00 0.00 74 1018.7
20260509174356 62 15 4.3 8.7 0.00 0.00 0.00 77 1018.7
20260509173853 63 29 3.5 7.0 0.00 0.00 0.00 72 1018.6
20260509173354 61 16 3.5 7.8 0.00 0.00 0.00 79 1018.6
20260509172853 62 43 3.5 7.8 0.00 0.00 0.00 75 1018.7
20260509172350 62 24 3.5 7.0 0.00 0.00 0.00 76 1018.8
20260509171854 61 22 4.3 7.0 0.00 0.00 0.00 76 1019.0
20260509171349 60 358 4.3 8.7 0.00 0.00 0.00 78 1019.1
20260509170849 60 308 4.3 8.7 0.00 0.00 0.00 78 1019.1
20260509170349 60 3 3.5 7.8 0.00 0.00 0.00 79 1019.0
20260509165846 61 358 4.3 7.8 0.00 0.00 0.00 78 1019.2
20260509165610 60 340 4.3 7.8 0.00 0.00 0.00 78 1019.2
20260509165108 59 4 3.5 7.0 0.00 0.00 0.00 81 1019.2
20260509164345 59 44 4.3 8.7 0.00 0.00 0.00 80 1019.3
20260509163843 58 23 5.2 8.7 0.00 0.00 0.00 81 1019.4
20260509163344 58 0 5.2 8.7 0.00 0.00 0.00 80 1019.5
20260509162843 57 13 5.2 8.7 0.00 0.00 0.00 82 1019.5
20260509162343 57 27 5.2 7.8 0.00 0.00 0.00 82 1019.5
20260509161843 57 19 4.3 7.8 0.00 0.00 0.00 83 1019.6
20260509161342 57 327 4.3 8.7 0.00 0.00 0.00 85 1019.7
20260509160839 56 352 4.3 8.7 0.00 0.00 0.00 85 1019.7
20260509160338 56 341 3.5 7.0 0.00 0.00 0.00 87 1019.6
20260509155830 55 8 2.6 5.2 0.00 0.00 0.00 87 1019.6
20260509155333 55 26 2.6 5.2 0.00 0.00 0.00 88 1019.8
20260509154830 55 328 2.6 6.1 0.00 0.00 0.00 88 1019.7
20260509154328 54 332 2.6 6.1 0.00 0.00 0.00 90 1019.7
20260509153827 53 358 2.6 6.1 0.00 0.00 0.00 88 1019.7
20260509153325 54 36 2.6 6.1 0.00 0.00 0.00 89 1019.8
20260509152818 53 308 2.6 6.1 0.00 0.00 0.00 91 1019.9
20260509152317 53 5 2.6 5.2 0.00 0.00 0.00 91 1019.9
20260509151809 53 0 2.6 4.3 0.00 0.00 0.00 92 1019.8
20260509151303 52 325 2.6 4.3 0.00 0.00 0.00 92 1019.9
20260509150808 52 330 2.6 5.2 0.00 0.00 0.00 92 1019.8
20260509150304 51 329 3.5 5.2 0.00 0.00 0.00 92 1019.8
20260509145801 51 1 3.5 6.1 0.00 0.00 0.00 93 1019.9
20260509145301 51 23 3.5 6.1 0.00 0.00 0.00 92 1019.9
20260509145014 51 346 2.6 6.1 0.00 0.00 0.00 93 1019.9
20260509144901 51 354 2.6 6.1 0.00 0.00 0.00 93 1019.8
20260509143802 50 22 2.6 6.1 0.00 0.00 0.00 94 1019.9
20260509143257 50 338 1.7 3.5 0.00 0.00 0.00 95 1019.9
20260509142759 49 12 0.9 3.5 0.00 0.00 0.00 95 1019.9
20260509142259 49 0 0.9 1.7 0.00 0.00 0.00 95 1019.9
20260509141752 49 121 0.9 1.7 0.00 0.00 0.00 96 1020.0
20260509141248 48 121 0.9 1.7 0.00 0.00 0.00 96 1020.1
20260509140748 47 121 0.0 1.7 0.00 0.00 0.00 95 1020.1
20260509140248 47 121 0.0 0.0 0.00 0.00 0.00 95 1019.9
20260509135741 46 121 0.0 0.0 0.00 0.00 0.00 95 1020.0
20260509135240 46 121 0.0 0.0 0.00 0.00 0.00 95 1019.9
20260509134737 45 121 0.0 0.0 0.00 0.00 0.00 95 1019.9
20260509134210 45 121 0.0 0.9 0.00 0.00 0.00 95 1020.0
20260509133707 44 120 0.9 1.7 0.00 0.00 0.00 94 1020.0
20260509133146 44 120 0.9 1.7 0.00 0.00 0.00 94 1020.0
20260509133130 44 120 0.9 1.7 0.00 0.00 0.00 94 1020.0
20260509132144 45 120 0.9 2.6 0.00 0.00 0.00 95 1020.0
20260509131632 44 120 1.7 2.6 0.00 0.00 0.00 95 1019.9
20260509131124 44 194 0.9 1.7 0.00 0.00 0.00 94 1019.9
20260509130823 44 194 0.9 1.7 0.00 0.00 0.00 94 1020.0
20260509130101 44 194 0.9 1.7 0.00 0.00 0.00 94 1020.2
20260509125559 44 309 0.0 1.7 0.00 0.00 0.00 94 1020.2
20260509125542 44 125 0.0 0.0 0.00 0.00 0.00 94 1020.3
20260509124558 44 125 0.0 1.7 0.00 0.00 0.00 94 1020.3
20260509124308 44 125 0.0 1.7 0.00 0.00 0.00 94 1020.4
20260509123542 44 125 0.0 0.9 0.00 0.00 0.00 94 1020.4
20260509123044 44 125 0.9 1.7 0.00 0.00 0.00 94 1020.4
20260509122539 44 125 0.9 1.7 0.00 0.00 0.00 94 1020.2
20260509122029 44 125 0.9 1.7 0.00 0.00 0.00 94 1020.3
20260509121525 45 125 0.9 1.7 0.00 0.00 0.00 94 1020.3
20260509121025 45 125 0.9 1.7 0.00 0.00 0.00 94 1020.2
20260509120522 45 125 0.0 1.7 0.00 0.00 0.00 94 1020.1
20260509120015 45 125 0.0 0.9 0.00 0.00 0.00 94 1020.3
20260509115515 44 125 0.0 0.9 0.00 0.00 0.00 94 1020.4
20260509114953 44 125 0.0 0.9 0.00 0.00 0.00 94 1020.5
20260509114443 45 125 0.0 2.6 0.00 0.00 0.00 94 1020.4
20260509113944 46 125 0.0 2.6 0.00 0.00 0.00 94 1020.4
20260509113446 46 125 0.0 0.0 0.00 0.00 0.00 94 1020.3
20260509112924 46 125 0.0 0.0 0.00 0.00 0.00 94 1020.3
20260509112417 45 125 0.0 0.0 0.00 0.00 0.00 93 1020.3
20260509111844 46 125 0.0 0.0 0.00 0.00 0.00 93 1020.3
20260509111326 46 125 0.0 0.0 0.00 0.00 0.00 93 1020.3
20260509110823 46 125 0.0 0.0 0.00 0.00 0.00 92 1020.4
20260509110325 46 125 0.0 0.0 0.00 0.00 0.00 93 1020.4
20260509105758 46 125 0.0 0.0 0.00 0.00 0.00 93 1020.5
20260509105242 46 125 0.0 0.0 0.00 0.00 0.00 92 1020.6
20260509104730 46 125 0.0 0.0 0.00 0.00 0.00 92 1020.6
20260509104221 46 125 0.0 0.0 0.00 0.00 0.00 92 1020.6
20260509103711 46 125 0.0 0.0 0.00 0.00 0.00 92 1020.6
20260509103429 47 125 0.0 0.0 0.00 0.00 0.00 91 1020.7
20260509102652 47 125 0.0 0.0 0.00 0.00 0.00 91 1020.7
20260509102138 47 125 0.0 0.0 0.00 0.00 0.00 91 1020.6
20260509101630 47 125 0.0 0.0 0.00 0.00 0.00 93 1020.7
20260509101326 47 125 0.0 0.0 0.00 0.00 0.00 92 1020.8
20260509100553 47 125 0.0 0.0 0.00 0.00 0.00 93 1020.7
20260509100016 47 125 0.0 0.9 0.00 0.00 0.00 93 1020.8
20260509095505 47 125 0.9 1.7 0.00 0.00 0.00 93 1020.8
20260509095216 47 125 0.9 1.7 0.00 0.00 0.00 93 1021.0
20260509094657 47 125 0.9 1.7 0.00 0.00 0.00 93 1020.8
20260509093940 48 125 0.9 1.7 0.00 0.00 0.00 93 1020.8
20260509093644 48 125 0.0 1.7 0.00 0.00 0.00 92 1020.7
20260509092921 48 125 0.0 0.0 0.00 0.00 0.00 92 1020.8
20260509092417 48 125 0.0 0.0 0.00 0.00 0.00 92 1020.7
20260509091909 48 125 0.0 0.0 0.00 0.00 0.00 91 1020.9
20260509091412 48 125 0.0 0.9 0.00 0.00 0.00 91 1021.0
20260509090839 48 125 0.0 0.9 0.00 0.00 0.00 91 1021.0
20260509090337 49 125 0.0 0.9 0.00 0.00 0.00 90 1021.1
20260509085836 49 125 0.0 0.9 0.00 0.00 0.00 90 1021.1
20260509085336 49 125 0.0 0.9 0.00 0.00 0.00 89 1021.1
20260509085055 49 125 0.0 0.9 0.00 0.00 0.00 89 1021.2
20260509084333 49 125 0.0 0.9 0.00 0.00 0.00 90 1021.1
20260509083820 49 125 0.0 0.9 0.00 0.00 0.00 90 1021.2
20260509083316 49 125 0.0 0.0 0.00 0.00 0.00 90 1021.2
20260509083035 49 125 0.0 0.0 0.00 0.00 0.00 90 1021.2
20260509082531 50 125 0.0 0.0 0.00 0.00 0.00 90 1021.2
20260509081740 50 125 0.0 0.9 0.00 0.00 0.00 89 1021.2
20260509081504 50 125 0.0 0.9 0.00 0.00 0.00 90 1021.2
20260509080734 50 125 0.0 0.9 0.00 0.00 0.00 89 1021.3
20260509080234 50 125 0.9 1.7 0.00 0.00 0.00 89 1021.3
20260509075731 51 125 0.9 1.7 0.00 0.00 0.00 88 1021.2
20260509075229 51 125 0.9 1.7 0.00 0.00 0.00 88 1021.2
20260509074720 51 125 0.0 0.9 0.00 0.00 0.00 89 1021.1
20260509074440 51 125 0.0 0.0 0.00 0.00 0.00 88 1021.2
20260509073725 51 125 0.0 0.9 0.00 0.00 0.00 88 1021.2
20260509073217 51 125 0.9 1.7 0.00 0.00 0.00 88 1021.2
20260509072654 51 125 0.9 1.7 0.00 0.00 0.00 88 1021.2
20260509072148 51 125 0.9 1.7 0.00 0.00 0.00 88 1021.3
20260509071645 52 125 0.9 1.7 0.00 0.00 0.00 88 1021.5
20260509071148 52 125 0.9 1.7 0.00 0.00 0.00 87 1021.4
20260509070645 52 125 0.9 1.7 0.00 0.00 0.00 87 1021.4
20260509070146 53 125 0.9 1.7 0.00 0.00 0.00 86 1021.4
20260509065639 53 125 0.9 2.6 0.00 0.00 0.00 87 1021.5
20260509065138 52 125 0.9 2.6 0.00 0.00 0.00 87 1021.4
20260509064627 52 45 0.9 2.6 0.00 0.00 0.00 86 1021.4
20260509064112 52 332 0.9 1.7 0.00 0.00 0.00 87 1021.4
20260509063613 53 329 0.0 1.7 0.00 0.00 0.00 87 1021.4
20260509063059 53 329 0.0 1.7 0.00 0.00 0.00 87 1021.4
20260509062559 53 329 0.0 0.0 0.00 0.00 0.00 86 1021.4
20260509062024 53 329 0.0 0.0 0.00 0.00 0.00 85 1021.4
20260509061451 53 329 0.0 0.0 0.00 0.00 0.00 86 1021.4
20260509060937 53 329 0.0 0.0 0.00 0.00 0.00 85 1021.4
20260509060425 53 329 0.0 0.0 0.00 0.00 0.00 85 1021.4
20260509055846 54 329 0.0 0.0 0.00 0.00 0.00 85 1021.3
20260509055342 54 329 0.0 0.0 0.00 0.00 0.00 85 1021.3
20260509054825 54 329 0.0 0.0 0.00 0.00 0.00 85 1021.3
20260509054255 55 329 0.0 0.0 0.00 0.00 0.00 85 1021.4
20260509053740 55 329 0.0 0.0 0.00 0.00 0.00 84 1021.2
20260509053229 55 329 0.0 0.0 0.00 0.00 0.00 84 1021.3
20260509052726 55 329 0.0 0.0 0.00 0.00 0.00 85 1021.4
20260509052225 55 329 0.0 0.0 0.00 0.00 0.00 85 1021.3
20260509051724 55 329 0.0 0.0 0.00 0.00 0.00 86 1021.3
20260509051152 55 329 0.0 0.0 0.00 0.00 0.00 85 1021.2
20260509050638 56 329 0.0 0.0 0.00 0.00 0.00 81 1021.2
20260509050128 56 329 0.0 0.0 0.00 0.00 0.00 80 1021.2
20260509045604 56 329 0.0 0.0 0.00 0.00 0.00 81 1021.1
20260509045535 57 329 0.0 0.0 0.00 0.00 0.00 81 1021.0
20260509044811 57 329 0.0 0.0 0.00 0.00 0.00 81 1021.0
20260509044045 57 329 0.0 0.0 0.00 0.00 0.00 81 1021.0
20260509043523 57 329 0.0 0.9 0.00 0.00 0.00 80 1020.9
20260509043021 58 329 0.0 0.9 0.00 0.00 0.00 78 1021.0
20260509042520 58 329 0.0 0.9 0.00 0.00 0.00 77 1021.0
20260509042018 58 329 0.0 0.0 0.00 0.00 0.00 76 1020.9
20260509041510 59 329 0.0 0.9 0.00 0.00 0.00 75 1020.8
20260509041004 59 329 0.0 0.9 0.00 0.00 0.00 74 1020.7
20260509040719 60 329 0.9 1.7 0.00 0.00 0.00 73 1020.7
20260509040001 60 329 0.9 1.7 0.00 0.00 0.00 72 1020.6
20260509035500 60 329 0.9 2.6 0.00 0.00 0.00 71 1020.7
20260509034955 61 329 1.7 3.5 0.00 0.00 0.00 69 1020.6
20260509034456 61 331 1.7 3.5 0.00 0.00 0.00 69 1020.5
20260509033955 61 314 1.7 3.5 0.00 0.00 0.00 69 1020.4
20260509033458 62 341 1.7 3.5 0.00 0.00 0.00 67 1020.4
20260509033216 62 358 1.7 5.2 0.00 0.00 0.00 67 1020.2
20260509032453 63 349 1.7 5.2 0.00 0.00 0.00 66 1020.2
20260509031952 63 4 1.7 5.2 0.00 0.00 0.00 65 1020.1
20260509031707 63 346 2.6 5.2 0.00 0.00 0.00 65 1020.1
20260509031203 64 346 2.6 5.2 0.00 0.00 0.00 65 1020.1
20260509030706 64 358 2.6 5.2 0.00 0.00 0.00 65 1020.0
20260509025940 64 6 2.6 5.2 0.00 0.00 0.00 64 1020.0
20260509025702 64 348 2.6 5.2 0.00 0.00 0.00 64 1020.1
20260509024928 65 28 2.6 5.2 0.00 0.00 0.00 64 1020.0
20260509024423 65 43 2.6 5.2 0.00 0.00 0.00 63 1020.1
20260509023919 65 357 2.6 7.8 0.00 0.00 0.00 62 1020.1
20260509023420 65 32 3.5 7.8 0.00 0.00 0.00 62 1020.0
20260509022920 66 13 3.5 8.7 0.00 0.00 0.00 62 1020.0
20260509022421 66 18 3.5 8.7 0.00 0.00 0.00 62 1020.0
20260509021918 66 40 4.3 7.8 0.00 0.00 0.00 61 1020.0
20260509021414 67 17 4.3 8.7 0.00 0.00 0.00 60 1020.0
20260509020904 67 331 5.2 8.7 0.00 0.00 0.00 60 1019.9
20260509020406 67 27 4.3 8.7 0.00 0.00 0.00 59 1020.0
20260509020125 67 16 3.5 7.8 0.00 0.00 0.00 59 1019.9
20260509015406 67 58 3.5 7.8 0.00 0.00 0.00 58 1019.9
20260509014904 67 352 4.3 7.8 0.00 0.00 0.00 58 1019.9
20260509014403 67 42 5.2 8.7 0.00 0.00 0.00 58 1019.9
20260509014125 68 11 5.2 8.7 0.00 0.00 0.00 58 1019.9
20260509013401 68 0 4.3 9.6 0.00 0.00 0.00 56 1019.9
20260509013124 68 10 4.3 9.6 0.00 0.00 0.00 57 1019.9
20260509012358 68 44 4.3 8.7 0.00 0.00 0.00 57 1019.9
20260509011859 69 19 4.3 8.7 0.00 0.00 0.00 57 1020.0
20260509011357 69 58 5.2 9.6 0.00 0.00 0.00 56 1020.0
20260509010856 69 28 5.2 9.6 0.00 0.00 0.00 55 1020.0
20260509010357 69 30 5.2 10.4 0.00 0.00 0.00 55 1020.0
20260509005856 69 5 5.2 10.4 0.00 0.00 0.00 54 1020.2
20260509005354 69 29 4.3 7.8 0.00 0.00 0.00 55 1020.2
20260509004852 69 15 4.3 10.4 0.00 0.00 0.00 57 1020.1
20260509004352 69 17 5.2 10.4 0.00 0.00 0.00 55 1020.3
20260509003851 69 29 6.1 11.3 0.00 0.00 0.00 56 1020.3
20260509003350 70 27 5.2 11.3 0.00 0.00 0.00 54 1020.2
20260509002850 71 13 5.2 8.7 0.00 0.00 0.00 54 1020.2
20260509002349 71 0 5.2 8.7 0.00 0.00 0.00 53 1020.3
20260509001849 71 352 5.2 9.6 0.00 0.00 0.00 53 1020.2
20260509001348 71 25 5.2 9.6 0.00 0.00 0.00 51 1020.2
20260509000846 71 351 5.2 9.6 0.00 0.00 0.00 52 1020.2
20260509000344 71 352 5.2 9.6 0.00 0.00 0.00 52 1020.2
20260508235840 71 17 4.3 12.2 0.00 0.00 0.00 51 1020.1
20260508235341 71 316 4.3 12.2 0.00 0.00 0.00 50 1020.2
20260508235108 71 352 4.3 8.7 0.00 0.00 0.00 53 1020.1
20260508234557 71 19 5.2 8.7 0.00 0.00 0.00 51 1020.2
20260508234059 71 353 5.2 7.8 0.00 0.00 0.00 52 1020.3
20260508233337 72 39 5.2 7.8 0.00 0.00 0.00 50 1020.3
20260508232836 71 322 4.3 10.4 0.00 0.00 0.00 50 1020.3
20260508232334 71 346 4.3 10.4 0.00 0.00 0.00 53 1020.3
20260508232052 71 339 4.3 9.6 0.00 0.00 0.00 52 1020.3
20260508231332 71 343 4.3 9.6 0.00 0.00 0.00 50 1020.3
20260508230831 72 337 4.3 8.7 0.00 0.00 0.00 52 1020.5
20260508230328 73 13 2.6 7.8 0.00 0.00 0.00 49 1020.4
20260508225828 73 323 3.5 8.7 0.00 0.00 0.00 50 1020.3
20260508225324 73 15 4.3 8.7 0.00 0.00 0.00 49 1020.4
20260508225044 72 342 3.5 7.8 0.00 0.00 0.00 52 1020.4
20260508224319 72 347 2.6 7.8 0.00 0.00 0.00 48 1020.5
20260508223817 71 33 1.7 7.0 0.00 0.00 0.00 55 1020.5
20260508223316 70 294 2.6 7.0 0.00 0.00 0.00 52 1020.5
20260508223300 71 246 3.5 7.0 0.00 0.00 0.00 50 1020.6
20260508222314 71 289 2.6 7.8 0.00 0.00 0.00 51 1020.5
20260508221812 71 292 3.5 8.7 0.00 0.00 0.00 49 1020.6
20260508221312 71 334 3.5 8.7 0.00 0.00 0.00 50 1020.7
20260508220813 70 36 3.5 7.8 0.00 0.00 0.00 52 1020.8
20260508220311 70 285 2.6 7.8 0.00 0.00 0.00 53 1020.8
20260508215812 70 318 2.6 7.0 0.00 0.00 0.00 53 1020.9
20260508215309 70 238 2.6 7.0 0.00 0.00 0.00 52 1021.0
20260508214806 69 316 2.6 6.1 0.00 0.00 0.00 53 1021.1
20260508214307 70 290 3.5 7.8 0.00 0.00 0.00 54 1021.1
20260508213807 71 354 3.5 7.8 0.00 0.00 0.00 52 1021.0
20260508213306 70 282 2.6 6.1 0.00 0.00 0.00 52 1021.2
20260508212806 69 302 2.6 7.0 0.00 0.00 0.00 55 1021.2
20260508212306 69 344 3.5 7.8 0.00 0.00 0.00 54 1021.3
20260508211804 69 308 3.5 8.7 0.00 0.00 0.00 52 1021.4
20260508211304 69 291 3.5 8.7 0.00 0.00 0.00 56 1021.3
20260508210802 69 325 3.5 7.0 0.00 0.00 0.00 53 1021.4
20260508210301 68 234 3.5 7.0 0.00 0.00 0.00 51 1021.4
20260508205801 68 294 2.6 7.0 0.00 0.00 0.00 54 1021.3
20260508205306 67 332 2.6 5.2 0.00 0.00 0.00 60 1021.3
20260508204801 67 0 2.6 5.2 0.00 0.00 0.00 52 1021.4
20260508204301 68 300 3.5 7.8 0.00 0.00 0.00 52 1021.4
20260508203801 68 231 3.5 7.8 0.00 0.00 0.00 61 1021.4
20260508203301 67 275 4.3 8.7 0.00 0.00 0.00 54 1021.6
20260508202757 67 275 4.3 9.6 0.00 0.00 0.00 57 1021.5
20260508202256 67 293 4.3 9.6 0.00 0.00 0.00 57 1021.4
20260508201755 65 242 3.5 9.6 0.00 0.00 0.00 57 1021.5
20260508201254 66 44 2.6 9.6 0.00 0.00 0.00 59 1021.6
20260508201019 65 275 3.5 7.0 0.00 0.00 0.00 61 1021.6
20260508200253 65 2 3.5 8.7 0.00 0.00 0.00 58 1021.7
20260508195754 65 200 3.5 8.7 0.00 0.00 0.00 61 1021.8
20260508195258 65 54 3.5 7.8 0.00 0.00 0.00 64 1021.8
20260508194751 65 296 2.6 7.0 0.00 0.00 0.00 61 1021.7
20260508194510 64 279 2.6 5.2 0.00 0.00 0.00 60 1021.7
20260508193749 64 10 2.6 7.0 0.00 0.00 0.00 62 1021.8
20260508193247 65 275 3.5 7.0 0.00 0.00 0.00 58 1021.8
20260508192748 65 339 3.5 7.8 0.00 0.00 0.00 61 1022.0
20260508192248 65 231 3.5 7.8 0.00 0.00 0.00 65 1021.7
20260508191747 63 39 3.5 8.7 0.00 0.00 0.00 60 1021.9
20260508191245 63 241 3.5 9.6 0.00 0.00 0.00 59 1021.9
20260508190749 63 17 2.6 9.6 0.00 0.00 0.00 63 1021.9
20260508190244 63 319 3.5 7.0 0.00 0.00 0.00 60 1021.9